GFSGL_sfc_dewp_276.txt.gz
Dewpoint
50 51 52 50 50 51 52 51 52 52 51 49 49 49 50 50 51 51 50 48 45 46 48 48 49 51 45 45 45 48 46 45 45 47 49 49 52 51 50 52 53 55 55
47 48 50 50 50 52 52 51 52 51 50 48 47 47 46 47 48 48 45 44 43 44 46 48 48 47 48 46 44 45 46 46 47 46 48 50 50 50 49 50 51 53 55
45 47 49 51 53 53 53 52 52 50 49 48 48 46 45 46 44 44 43 43 42 43 45 48 48 48 46 45 45 45 43 45 47 47 47 47 50 49 47 48 49 51 54
44 46 49 52 52 52 53 51 50 50 49 48 48 46 47 45 42 41 40 41 41 42 47 48 48 46 46 46 44 43 42 43 43 44 45 47 46 47 48 46 46 49 51
45 45 50 51 52 52 51 51 51 51 50 48 47 47 46 43 39 42 42 41 42 44 46 45 45 44 45 45 40 41 40 39 42 43 44 45 45 45 45 47 47 47 50
45 46 47 49 49 51 51 52 51 51 50 50 48 47 46 40 42 43 43 41 43 44 43 43 44 44 45 45 43 42 43 40 43 43 45 45 45 46 45 47 47 45 45
47 46 44 47 46 50 50 50 50 51 51 50 49 48 46 47 42 42 43 41 44 43 42 43 42 41 41 39 40 41 42 43 43 46 44 43 45 45 46 45 47 46 46
46 43 43 45 45 47 49 50 51 52 51 50 48 49 46 47 42 41 41 42 44 44 42 41 42 41 42 39 39 39 39 40 40 37 39 41 44 45 46 47 48 47 48
42 42 42 43 44 45 47 50 51 51 51 49 49 48 49 48 42 40 40 43 42 42 41 41 41 41 41 40 39 38 39 39 39 40 41 42 43 44 46 45 46 45 44
43 44 43 45 46 46 48 50 52 50 48 47 47 48 48 49 41 40 41 39 39 38 39 39 41 41 40 40 39 40 39 39 37 38 39 41 46 47 47 49 47 44 44
43 44 45 47 49 49 51 51 50 49 48 48 47 48 48 47 44 41 40 39 38 38 39 39 40 41 39 40 40 40 40 38 38 37 36 38 40 44 47 48 49 46 44
44 45 46 48 45 43 50 50 49 48 50 44 42 42 44 46 42 40 39 39 40 38 37 38 38 38 39 39 39 40 39 39 39 36 35 36 37 39 41 43 48 49 48
47 48 48 48 46 48 48 49 46 46 44 40 38 39 40 40 41 40 39 39 39 37 37 38 39 39 38 38 38 39 39 40 36 35 35 35 37 39 41 43 45 48 49
48 48 48 47 47 48 44 43 45 43 44 40 40 40 39 39 39 39 38 38 38 38 39 39 39 39 38 38 36 35 35 38 35 37 36 37 39 39 40 41 41 43 47
48 48 48 43 46 45 48 46 45 43 41 41 41 39 38 38 37 37 37 37 37 37 38 38 37 37 36 36 36 35 35 35 35 37 38 38 39 39 39 41 41 42 43
48 44 44 41 41 41 43 45 39 39 39 40 39 38 37 38 37 37 37 37 37 37 38 37 37 37 36 36 36 36 36 35 35 36 38 39 39 40 39 40 41 41 41
49 48 41 39 37 38 39 40 40 37 39 38 38 40 40 38 37 37 37 36 38 38 37 37 37 36 36 36 36 36 36 36 37 38 37 38 39 40 39 39 40 41 41
48 42 39 35 35 38 39 40 39 40 39 40 39 38 38 37 37 37 36 37 37 37 37 37 37 37 36 36 36 36 37 37 37 36 36 37 39 39 38 39 39 39 40
45 41 40 37 37 38 38 36 36 40 40 39 39 39 38 37 36 37 37 38 37 37 37 37 37 37 37 37 37 37 36 36 37 37 38 37 38 39 38 38 39 36 37
43 37 35 37 36 36 34 34 37 39 38 38 38 38 38 37 38 38 38 38 38 38 38 37 37 38 38 37 37 37 36 36 36 37 38 39 39 38 38 38 38 38 40
37 38 33 32 34 33 34 36 39 38 37 37 38 37 33 36 38 38 38 38 39 39 38 38 38 38 38 37 37 36 35 35 35 36 37 38 38 37 38 38 38 39 40
38 31 33 33 35 33 34 38 38 36 36 37 38 38 34 38 37 37 38 38 39 39 39 38 38 38 38 37 37 36 35 35 34 35 36 37 37 38 38 38 38 39 41
30 32 33 34 35 33 35 37 37 36 37 36 37 36 37 37 37 37 37 38 39 39 38 38 38 38 38 39 39 39 37 36 37 37 36 35 36 36 37 38 38 39 40
33 34 32 32 32 32 35 37 36 35 36 36 37 37 38 37 37 37 37 37 37 37 38 38 38 38 38 38 39 39 38 37 35 35 36 35 35 35 37 37 38 39 40
33 33 33 33 32 33 36 36 36 37 36 35 37 37 37 37 37 37 37 37 37 37 38 38 38 38 38 38 38 37 34 32 33 33 34 34 35 36 36 37 38 39 40
34 34 33 31 32 35 36 35 37 37 36 36 37 39 38 37 37 37 37 37 37 37 37 37 38 38 38 38 37 33 33 33 33 33 35 36 36 36 37 38 39 40 41

GFSGL_sfc_dewp_279.txt.gz
Dewpoint
48 47 46 45 44 46 44 46 46 47 46 46 45 45 45 45 45 43 42 42 41 41 42 43 46 48 48 46 44 46 45 43 41 42 43 45 49 50 48 48 49 50 52
46 46 45 44 45 46 46 45 46 46 45 46 45 45 45 43 42 40 39 40 40 40 40 43 45 47 46 44 44 45 45 44 44 42 44 44 46 50 47 46 48 49 50
44 45 45 46 48 46 46 46 45 44 44 46 45 45 42 42 39 38 37 39 39 40 41 45 46 48 45 44 44 44 41 40 40 43 41 43 46 46 45 45 46 48 50
41 43 44 45 45 46 47 43 42 44 45 44 45 45 43 41 40 39 38 39 39 40 43 45 44 43 43 44 41 40 39 38 38 39 42 43 45 45 45 44 45 46 48
45 43 42 44 46 44 44 46 45 44 45 45 45 45 42 40 39 39 38 40 39 40 43 43 43 42 46 46 44 40 38 38 38 39 39 44 42 44 43 43 45 47 47
42 43 45 44 44 43 44 45 45 46 44 45 45 45 42 41 42 43 42 39 38 40 41 41 42 41 43 42 41 41 40 38 38 37 43 41 41 43 43 43 43 45 43
43 46 45 42 42 43 43 44 45 44 45 45 45 45 44 42 44 43 43 39 38 41 41 40 40 38 43 39 39 40 40 41 42 42 39 36 39 39 41 42 42 46 45
44 46 42 42 42 42 42 45 43 45 45 44 45 45 45 43 45 42 42 38 40 41 41 40 38 40 41 40 40 38 37 37 38 38 36 37 39 40 42 44 45 46 46
46 42 42 42 42 42 41 43 42 44 44 44 44 44 43 45 42 40 39 39 39 38 37 38 39 40 41 41 39 39 39 38 41 41 41 41 42 43 46 45 44 42 43
42 42 42 42 43 41 42 42 43 43 43 44 44 44 44 41 41 40 39 38 37 37 37 37 40 41 41 40 39 39 38 39 38 37 37 37 40 45 46 47 48 44 43
42 42 42 43 42 40 41 41 42 43 44 44 41 43 42 41 39 39 39 37 36 37 35 36 36 39 39 39 39 38 40 40 38 38 37 36 37 39 42 42 43 46 44
41 42 44 42 43 42 42 41 44 44 43 36 36 39 41 40 41 40 39 39 39 37 36 37 38 39 39 39 38 39 39 39 39 36 35 35 35 36 38 40 42 46 48
44 44 44 42 42 37 39 42 39 40 38 37 39 39 38 38 39 40 39 39 39 38 38 39 40 39 38 38 38 39 37 39 35 35 36 36 36 38 40 41 42 44 46
44 42 43 41 39 39 42 44 42 40 39 39 38 37 37 37 37 37 37 37 38 38 38 38 40 39 39 39 37 37 35 36 36 35 36 37 39 39 39 40 40 42 44
43 45 42 38 38 40 41 39 38 35 38 39 38 37 36 37 36 37 37 36 37 38 39 38 37 37 37 37 37 37 37 36 35 37 37 38 38 39 39 40 41 41 42
42 43 42 40 39 39 38 38 38 37 38 37 37 36 36 38 37 37 37 37 37 38 38 37 37 37 36 36 36 36 37 37 36 36 37 38 38 39 39 40 40 40 41
42 41 42 39 33 35 36 38 39 36 38 37 37 38 40 39 37 37 37 36 37 38 37 37 37 36 36 37 36 36 36 37 38 37 37 37 38 39 38 39 39 40 40
42 43 37 35 34 36 37 37 40 39 38 38 38 37 39 38 37 37 36 37 37 37 38 37 37 37 37 37 37 36 36 36 37 37 37 37 39 39 38 38 39 39 39
44 43 36 35 35 37 37 35 39 38 38 37 38 38 37 37 37 37 37 38 37 37 38 38 38 38 37 37 37 36 36 35 35 35 37 38 39 39 38 38 38 36 37
42 38 35 33 35 35 35 38 38 38 37 37 38 37 37 37 37 37 38 38 38 38 38 38 38 38 37 37 36 36 35 35 35 34 36 37 39 38 37 37 38 38 39
40 40 35 33 35 34 35 38 38 36 36 37 37 37 33 36 37 37 37 37 39 39 38 38 38 38 37 36 36 35 34 33 34 34 34 35 37 37 38 38 38 38 39
34 35 35 35 35 32 34 38 37 36 37 37 37 36 33 37 37 37 37 37 38 39 39 38 38 38 37 35 35 35 35 34 34 33 33 34 36 37 38 37 38 38 40
31 35 35 36 34 33 38 37 36 36 37 37 36 36 37 37 37 37 37 37 37 38 38 39 39 38 37 37 35 35 35 35 36 36 34 33 34 36 37 37 38 39 40
31 35 35 35 33 33 38 37 36 35 36 37 37 37 38 37 37 37 37 37 37 37 38 39 39 38 36 36 36 36 37 36 34 33 34 35 34 35 36 37 38 39 39
37 36 36 33 35 35 37 37 38 37 36 36 36 38 38 37 37 37 37 37 36 37 37 38 38 37 35 35 35 36 34 32 33 33 34 34 35 36 36 37 38 39 40
36 34 31 33 37 36 38 38 37 37 37 36 36 38 38 38 37 37 36 36 36 36 36 37 37 36 35 36 36 33 33 33 33 32 35 35 35 35 37 37 38 39 40

GFSGL_sfc_dewp_285.txt.gz
Dewpoint
47 45 44 44 44 44 43 44 44 44 43 43 44 44 42 40 39 35 35 36 36 36 38 40 40 41 42 42 44 43 43 44 41 38 37 37 40 41 43 45 47 46 46
46 45 44 44 45 44 43 44 44 43 42 42 44 44 42 41 39 37 36 36 36 37 38 39 40 42 42 41 41 42 42 43 42 39 37 38 39 41 43 43 44 45 45
46 45 44 45 45 45 45 44 45 42 42 43 44 44 42 42 41 39 38 37 37 37 38 39 40 43 42 41 42 44 41 41 40 40 37 38 41 41 42 41 42 43 44
45 43 44 45 44 44 45 45 43 43 42 43 44 44 44 43 42 41 40 38 38 38 38 39 41 42 42 43 43 43 41 40 39 38 37 37 37 40 39 39 39 39 41
42 43 43 45 43 44 45 44 44 45 45 44 44 44 44 44 43 41 40 39 38 39 38 40 40 41 43 42 43 43 41 40 39 39 38 39 36 35 34 36 38 38 41
43 43 43 43 45 44 42 43 43 43 43 43 43 43 43 43 45 46 46 40 39 37 38 39 39 40 40 42 41 42 43 40 38 38 40 39 39 35 35 36 40 40 40
42 43 45 45 44 42 42 43 41 40 40 41 41 41 42 42 45 44 43 37 36 37 37 37 37 37 40 41 41 41 40 40 41 41 39 39 37 35 35 38 40 42 43
42 44 42 42 41 40 40 40 40 40 39 40 40 41 40 41 42 40 41 36 36 37 37 37 37 37 39 40 39 39 38 38 39 39 40 39 38 38 39 43 42 45 44
43 41 41 41 40 41 40 38 40 39 39 39 41 41 38 38 40 40 39 36 37 36 36 38 38 38 40 41 39 38 37 37 39 41 42 41 41 41 42 43 41 41 42
41 41 41 40 41 40 38 40 38 38 39 42 42 39 40 38 39 39 39 37 35 36 37 37 39 40 41 40 38 37 36 35 36 38 38 38 38 38 40 43 42 39 41
41 41 41 42 41 40 40 39 39 38 40 39 41 40 39 39 38 40 40 38 36 36 37 37 38 40 40 40 40 38 38 38 37 37 37 36 36 36 39 42 43 41 40
41 43 43 41 40 41 37 36 37 39 38 35 37 37 38 39 40 40 40 39 39 37 37 38 38 39 39 39 39 39 39 39 37 35 34 35 36 37 37 39 41 41 39
42 41 41 41 37 36 36 37 39 39 37 37 37 36 36 37 37 39 39 39 39 38 38 39 40 40 39 39 40 40 39 37 36 35 35 35 36 38 38 40 39 40 41
40 41 41 40 38 35 36 38 36 36 37 37 36 36 36 36 36 37 38 38 38 38 39 38 40 40 40 40 40 39 38 38 38 36 36 36 38 38 38 40 39 40 42
41 41 42 38 36 35 33 36 35 35 37 36 36 36 36 35 36 38 38 37 37 37 38 38 38 38 38 38 38 39 39 38 37 37 37 37 37 37 38 40 40 40 40
41 40 40 40 38 32 33 37 38 37 37 37 37 36 36 37 37 37 37 37 37 37 37 37 37 38 38 38 37 36 37 38 37 37 37 38 37 37 38 39 40 39 39
39 39 41 40 33 32 35 37 34 35 38 38 37 37 37 37 37 37 37 36 36 36 37 37 38 38 38 38 37 36 35 37 38 37 36 37 37 38 38 38 39 39 39
40 40 40 38 35 33 37 38 38 36 35 36 37 37 37 37 36 36 36 37 37 37 38 38 38 38 38 37 36 35 35 36 36 36 36 36 37 38 38 38 38 38 39
38 36 36 36 33 35 37 38 37 37 36 36 36 36 36 36 36 36 37 37 37 37 38 38 39 38 37 36 35 34 34 34 34 35 35 36 37 38 38 38 38 36 36
31 35 35 34 33 34 37 37 36 36 36 36 35 35 36 35 37 37 37 37 37 37 38 38 38 38 37 35 34 33 33 33 34 34 34 35 36 38 38 38 38 37 38
32 34 33 34 32 32 37 37 36 36 35 35 35 36 33 34 37 37 37 37 37 38 38 37 36 36 36 35 34 33 33 33 33 33 34 34 35 36 38 38 38 38 39
32 35 35 33 34 35 37 36 36 36 36 35 36 36 33 36 38 37 37 37 38 38 37 36 35 35 34 33 32 32 32 32 33 33 34 34 35 36 37 37 37 38 40
35 33 34 34 34 34 36 36 36 36 36 35 35 36 36 37 38 37 37 37 38 36 35 35 35 34 35 34 34 33 32 32 33 34 34 34 34 36 37 37 38 39 40
33 34 35 36 36 37 37 36 36 34 35 36 36 36 36 37 38 37 36 37 36 35 35 35 35 34 34 34 34 35 35 35 35 34 34 34 35 35 37 37 38 39 41
34 35 36 37 37 37 37 37 36 36 36 36 36 37 38 37 36 36 36 36 35 35 35 35 35 35 35 36 36 35 33 32 32 32 34 35 36 36 37 38 38 40 42
35 36 37 37 37 37 37 36 36 36 36 36 37 38 38 37 36 35 36 35 34 34 34 35 36 36 37 36 35 32 32 32 32 33 35 36 36 36 38 38 39 40 42

GFSGL_sfc_dewp_291.txt.gz
Dewpoint
50 50 50 50 50 50 50 50 50 51 50 47 47 48 48 48 49 49 49 48 46 46 46 43 43 45 42 41 40 40 41 43 43 40 41 42 44 43 43 43 43 43 40
50 50 50 50 50 51 51 51 51 50 50 48 48 47 47 48 49 49 48 47 47 47 47 46 44 41 45 43 40 41 44 42 45 41 42 42 42 43 42 42 41 40 40
49 50 51 51 51 52 52 52 51 51 50 49 48 48 48 48 48 48 48 47 47 47 47 46 44 43 43 41 42 40 40 40 41 42 41 41 42 41 40 41 40 41 39
50 50 51 51 52 52 51 51 51 51 50 49 49 47 48 48 47 46 47 48 47 46 47 45 44 43 42 43 41 42 41 40 39 38 40 38 38 40 42 40 37 36 38
50 50 50 51 52 52 51 51 51 50 49 49 47 46 47 46 42 47 47 46 45 44 43 42 43 43 43 43 40 41 42 41 38 35 34 36 37 39 39 38 37 36 40
50 49 49 50 50 51 51 51 50 49 48 48 47 46 46 43 44 45 46 43 43 42 41 42 43 42 40 41 42 42 43 42 40 40 42 41 38 38 40 37 37 39 38
49 48 48 48 48 50 50 48 48 49 49 48 47 47 47 48 44 44 41 42 43 43 42 41 40 38 41 40 41 42 42 42 41 42 40 39 39 40 41 40 38 40 39
49 46 46 48 46 47 47 48 49 49 49 47 47 47 47 47 43 42 41 43 44 43 42 41 40 40 42 41 40 40 40 40 40 39 39 40 41 42 40 39 39 42 41
47 46 47 45 45 46 46 48 48 48 48 47 46 47 48 48 43 41 42 43 42 42 41 41 40 41 41 41 40 40 40 39 40 40 41 41 41 41 40 36 34 40 39
45 47 46 45 45 46 47 48 48 47 45 43 45 47 46 46 44 41 41 39 41 39 41 42 41 41 40 40 41 40 39 39 39 40 39 39 40 40 40 41 41 41 40
47 46 46 46 48 48 48 48 46 45 46 46 45 46 46 46 44 41 41 40 39 39 38 38 39 40 40 40 40 40 40 40 39 39 38 37 37 37 37 40 42 44 41
47 46 47 48 46 42 45 45 45 45 44 45 45 43 41 43 42 40 39 39 40 39 39 39 40 39 39 39 40 40 40 40 39 39 38 36 35 35 37 39 43 44 45
48 47 47 46 45 44 43 43 40 43 41 40 38 38 38 38 39 40 39 39 40 39 39 40 40 40 39 40 40 41 41 40 39 38 37 38 37 37 39 40 43 45 47
47 47 48 46 45 46 39 38 39 39 39 38 38 37 37 38 38 37 37 38 39 39 39 39 39 40 39 41 41 41 41 40 39 38 38 38 39 38 37 38 40 41 43
47 46 47 45 45 41 41 40 39 43 40 39 39 39 38 37 36 37 37 37 38 38 38 38 38 38 39 40 41 41 40 39 38 39 38 38 38 37 36 39 40 41 42
46 44 43 43 41 39 39 40 39 38 38 37 37 38 38 37 37 37 37 37 37 37 38 38 38 39 39 39 39 39 39 38 38 38 37 38 37 38 37 39 40 40 41
47 46 41 39 38 38 38 38 37 39 38 38 37 37 37 37 36 36 36 36 36 37 39 38 38 38 38 38 38 38 37 38 38 37 37 37 37 38 37 39 39 40 41
47 40 38 38 38 37 36 37 38 39 38 38 38 38 37 36 36 36 36 37 39 39 38 37 37 37 37 36 37 37 37 36 36 36 37 37 37 37 38 39 39 40 41
43 38 40 39 37 36 35 36 37 39 38 38 37 36 35 36 36 36 37 40 38 37 37 36 36 36 36 37 36 37 35 36 35 36 37 37 37 37 38 39 39 36 38
40 37 37 37 34 34 34 37 38 38 37 35 34 35 36 37 37 37 39 38 37 36 36 35 35 35 36 36 36 35 35 36 36 36 36 36 37 38 39 39 39 40 42
38 38 34 34 34 35 37 37 37 35 34 34 36 36 33 36 37 38 38 37 36 35 35 35 34 34 35 36 35 35 35 35 36 36 36 36 37 37 39 39 39 40 43
36 35 35 35 37 37 36 35 33 33 35 35 36 36 34 38 38 38 37 36 35 36 36 35 34 35 35 34 35 35 34 35 36 36 36 36 37 38 39 39 39 41 43
35 35 35 37 37 35 33 31 32 35 35 36 36 37 37 37 37 37 36 36 36 36 36 36 35 35 36 36 36 35 34 35 36 37 37 37 37 39 39 39 40 42 43
37 36 36 36 35 31 30 31 35 35 36 36 37 37 37 37 37 36 35 35 36 36 37 37 37 37 37 38 37 37 37 36 37 38 37 38 38 38 39 40 41 43 44
36 37 36 35 32 30 30 35 36 36 36 36 37 37 37 36 36 36 36 36 36 36 37 37 37 37 38 36 35 34 32 32 37 35 39 39 39 39 40 42 43 43 44
36 36 34 32 30 30 35 36 36 36 37 37 37 36 36 35 36 36 36 36 36 36 37 37 37 38 37 35 34 32 32 33 36 34 39 40 40 40 42 43 43 43 43